[[[{"header":{"parameterUnit":"kt","parameterCategory":2,"dx":1,"dy":1,"la1":30.253999710083008,"la2":30.299108505249023,"lo1":-89.0895004272461,"lo2":-89.04439544677734,"nx":28,"ny":28,"refTime":"2022-10-01T21:00:00:Z","depth":0,"parameterNumber":1,"parameterNumberName":"U-component_of_WINDS"},"data":[1.5245,1.5202,1.5183,1.5124,1.5096,1.5052,1.5029,1.4998,1.4967,1.491,1.4873,1.4846,1.4805,1.4754,1.4711,1.47,1.4682,1.4683,1.4669,1.4687,1.4688,1.4689,1.4698,1.468,1.468,1.4652,1.4652,1.4652,1.5264,1.5237,1.52,1.5151,1.5119,1.5107,1.5066,1.5039,1.4998,1.4959,1.4922,1.4868,1.4823,1.4779,1.4731,1.4708,1.4697,1.4696,1.4696,1.4689,1.4709,1.4719,1.4705,1.4705,1.4705,1.4705,1.4705,1.4705,1.5293,1.5268,1.5226,1.5186,1.5155,1.5121,1.5093,1.5061,1.5023,1.4971,1.4952,1.4905,1.486,1.4789,1.4759,1.472,1.4716,1.4707,1.4704,1.4701,1.4702,1.4746,1.471,1.471,1.471,1.471,1.471,0,1.5307,1.5292,1.5255,1.5212,1.518,1.5144,1.5106,1.5088,1.5045,1.5015,1.4968,1.4937,1.4876,1.4828,1.4776,1.4745,1.4725,1.4721,1.4714,1.4721,1.4737,1.4727,1.4759,1.4721,1.4721,1.4721,1.4721,1.4721,1.5333,1.5306,1.5251,1.5228,1.5202,1.5164,1.5136,1.51,1.5072,1.5019,1.4996,1.4949,1.4908,1.4834,1.4793,1.4745,1.4734,1.4722,1.4726,1.4736,1.4732,1.4733,1.473,1.4721,1.4721,1.4721,1.4721,0,1.535,1.5316,1.5266,1.5213,1.5199,1.5171,1.5125,1.5096,1.5067,1.5023,1.5011,1.4963,1.4917,1.4877,1.4814,1.4794,1.4745,1.4736,1.4761,1.4757,1.4741,1.4742,1.4698,1.469,1.471,1.471,1.471,0,1.5357,1.5322,1.5273,1.5245,1.5205,1.5169,1.513,1.51,1.506,1.5025,1.4998,1.4965,1.4919,1.488,1.485,1.4803,1.4791,1.4772,1.4764,1.4774,1.4776,1.4754,1.4755,1.4749,1.4749,1.4749,1.4749,0,1.5385,1.5317,1.5273,1.5251,1.5189,1.5169,1.5141,1.5096,1.5068,1.5025,1.5006,1.4958,1.493,1.4893,1.4855,1.4859,1.4797,1.4794,1.4777,1.4778,1.4763,1.4764,1.4738,1.475,1.475,1.475,1.475,0,1.5384,1.5344,1.5286,1.5234,1.5216,1.5186,1.5138,1.5103,1.5056,1.5036,1.5001,1.4976,1.4932,1.4933,1.4871,1.4888,1.4863,1.484,1.4838,1.483,1.4831,1.482,1.4801,1.4796,1.4825,1.4826,1.4827,0,1.5425,1.5356,1.5325,1.5269,1.5231,1.5203,1.5169,1.5129,1.5099,1.5061,1.5027,1.4983,1.4975,1.4955,1.493,1.4892,1.4871,1.4894,1.4835,1.4834,1.4848,1.4831,1.4837,1.481,1.4834,1.4833,1.4833,0,1.5452,1.5377,1.5369,1.5343,1.5284,1.5252,1.5213,1.5162,1.5139,1.5095,1.506,1.4997,1.4988,1.4955,1.4928,1.4904,1.4884,1.4897,1.4895,1.4895,1.4834,1.4841,1.4837,1.4871,1.487,1.4869,1.4839,0,1.5457,1.5417,1.5395,1.5336,1.5305,1.5267,1.5225,1.5198,1.5177,1.5145,1.5092,1.5045,1.499,1.4974,1.4952,1.491,1.491,1.49,1.4895,1.4885,1.4874,1.4869,1.4917,1.4916,1.4916,1.4916,0,0,1.5504,1.5446,1.5411,1.5372,1.5343,1.5313,1.5276,1.5244,1.5178,1.5158,1.5156,1.506,1.502,1.496,1.4953,1.4931,1.4919,1.4923,1.4891,1.4888,1.4886,1.4874,1.487,1.4915,1.4915,1.4915,1.4915,0,1.5496,1.5462,1.5427,1.5393,1.5341,1.531,1.5302,1.5243,1.5221,1.5169,1.5141,1.5104,1.5026,1.4989,1.496,1.4931,1.491,1.4917,1.4917,1.4889,1.4887,1.4885,1.4874,1.487,1.4914,1.4914,1.4914,0,1.5514,1.5473,1.5452,1.5385,1.535,1.5311,1.5297,1.5256,1.5226,1.519,1.5138,1.5105,1.505,1.4999,1.4974,1.497,1.4905,1.4917,1.4918,1.4913,1.4884,1.4881,1.4879,1.4908,1.4908,1.4908,0,0,1.5513,1.5476,1.5418,1.538,1.536,1.5313,1.5287,1.5262,1.5216,1.5197,1.5154,1.5108,1.5062,1.5033,1.4987,1.4937,1.4922,1.4918,1.4918,1.4919,1.4915,1.4885,1.4883,1.4909,1.4909,1.4909,0,0,1.5511,1.5444,1.5431,1.5382,1.5341,1.5279,1.5256,1.5238,1.5193,1.5192,1.5146,1.5131,1.5082,1.505,1.5065,1.4984,1.4981,1.4977,1.5007,1.5007,1.5007,1.5014,1.5041,0,0,0,0,0,1.5481,1.5453,1.5442,1.5427,1.5341,1.5286,1.5274,1.5237,1.5236,1.522,1.5181,1.516,1.5049,1.506,1.5045,1.5028,1.4917,1.4915,1.4914,1.4941,1.4941,1.4941,0,0,0,0,0,0,1.5475,1.5458,1.5443,1.5381,1.5361,1.5286,1.5277,1.5266,1.5237,1.5234,1.5169,1.5158,1.5123,1.5065,1.5052,1.5037,1.5045,1.4916,1.4915,1.4914,1.4941,1.4941,1.4941,0,0,0,0,0,1.547,1.5456,1.5328,1.5381,1.5364,1.5308,1.5278,1.5268,1.5245,1.5184,1.5173,1.522,1.5124,1.511,1.5057,1.5044,1.5054,1.5049,1.4916,1.4915,1.4914,1.4941,0,0,0,0,0,0,1.5467,1.5446,1.5324,1.5317,1.5389,1.5311,1.5298,1.5271,1.5196,1.5185,1.5233,1.5231,1.5124,1.5113,1.5103,1.5049,1.5061,1.5056,1.5053,1.4915,1.4914,1.4913,0,0,0,0,0,0,1.5453,1.5441,1.532,1.5333,1.5327,1.5314,1.5302,1.5251,1.5195,1.5248,1.5245,1.5233,1.5139,1.5116,1.5107,1.5029,1.5066,1.5062,1.5059,1.5057,1.4914,1.4914,0,0,0,0,0,0,1.5447,1.5436,1.5334,1.533,1.5325,1.5246,1.5268,1.5181,1.5209,1.5252,1.521,1.5211,1.5141,1.5132,1.511,1.5035,1.503,1.5066,1.5063,1.5061,1.5059,0,0,0,0,0,0,0,1.5442,1.5526,1.5364,1.5327,1.5323,1.5255,1.5253,1.5251,1.5209,1.521,1.521,1.521,1.5093,1.5088,1.5083,1.5041,0,0,1.5067,1.5064,0,0,0,0,0,0,0,0,1.5529,1.5527,1.5364,1.5363,1.5361,1.5255,1.5253,1.5252,1.5209,1.5209,1.521,1.521,1.5092,1.5087,1.5083,0,0,0,0,0,0,0,0,0,0,0,0,0,0,0,1.5364,1.5363,0,1.5255,1.5253,1.5252,1.5209,1.5209,1.521,1.521,1.509,1.5087,1.5084,0,0,0,0,0,0,0,0,0,0,0,0,0,0,0,0,0,0,0,0,0,0,0,0,0,0,0,0,0,0,0,0,0,0,0,0,0,0,0,0,0,0,0,0,0,0,0,0,0,0,0,0,0,0,0,0,0,0,0,0,0,0,0,0,0,0,0,0,0]}],[{"header":{"parameterUnit":"kt","parameterCategory":2,"dx":1,"dy":1,"la1":30.253999710083008,"la2":30.299108505249023,"lo1":-89.0895004272461,"lo2":-89.04439544677734,"nx":28,"ny":28,"refTime":"2022-10-01T21:00:00:Z","depth":0,"parameterNumber":2,"parameterNumberName":"V-component_of_WINDS"},"data":[-9.6332,-9.6552,-9.6549,-9.6797,-9.6835,-9.7003,-9.7061,-9.7135,-9.7191,-9.7387,-9.7498,-9.7512,-9.7563,-9.7691,-9.7808,-9.781,-9.7862,-9.7944,-9.7933,-9.7571,-9.752,-9.7472,-9.7422,-9.7955,-9.7956,-9.831,-9.8314,-9.8316,-9.607,-9.6111,-9.6241,-9.6364,-9.6475,-9.6394,-9.6482,-9.6579,-9.673,-9.68,-9.6909,-9.7079,-9.7211,-9.7233,-9.7357,-9.7457,-9.7424,-9.7491,-9.7484,-9.7494,-9.7106,-9.7052,-9.7516,-9.7516,-9.7516,-9.7515,-9.7515,-9.7515,-9.5593,-9.5725,-9.5797,-9.5937,-9.5997,-9.6078,-9.6201,-9.6217,-9.6341,-9.6473,-9.6439,-9.6607,-9.6673,-9.6817,-9.6862,-9.6991,-9.6914,-9.6985,-9.7003,-9.7022,-9.7046,-9.654,-9.7011,-9.7009,-9.7008,-9.7007,-9.7006,0,-9.5242,-9.523,-9.5353,-9.5477,-9.5578,-9.5671,-9.5754,-9.583,-9.5795,-9.5898,-9.6046,-9.613,-9.6292,-9.6429,-9.6541,-9.6573,-9.6495,-9.6485,-9.6534,-9.6556,-9.6562,-9.6564,-9.5934,-9.6471,-9.6467,-9.6463,-9.6461,-9.6459,-9.4763,-9.4916,-9.4986,-9.5074,-9.5118,-9.5258,-9.534,-9.5297,-9.5386,-9.5479,-9.5595,-9.5731,-9.5838,-9.6071,-9.6081,-9.6201,-9.6165,-9.6371,-9.6182,-9.6197,-9.6171,-9.6164,-9.6179,-9.641,-9.6416,-9.6421,-9.6425,0,-9.4493,-9.4483,-9.4718,-9.477,-9.4788,-9.495,-9.4993,-9.512,-9.5118,-9.5293,-9.533,-9.5328,-9.5471,-9.5448,-9.5605,-9.5588,-9.5851,-9.581,-9.5829,-9.5821,-9.6005,-9.5989,-9.6603,-9.6682,-9.6126,-9.6131,-9.6135,0,-9.4081,-9.4282,-9.4255,-9.4391,-9.4613,-9.4565,-9.4785,-9.4805,-9.4861,-9.4998,-9.4906,-9.5035,-9.4984,-9.5109,-9.5084,-9.5294,-9.5322,-9.5322,-9.5314,-9.5333,-9.5333,-9.5378,-9.5353,-9.5284,-9.5281,-9.5279,-9.5276,0,-9.3663,-9.3881,-9.4103,-9.415,-9.4225,-9.4329,-9.4364,-9.4425,-9.4504,-9.4602,-9.4652,-9.4768,-9.4832,-9.4922,-9.489,-9.4763,-9.5145,-9.4963,-9.5145,-9.5146,-9.5232,-9.5227,-9.5775,-9.5272,-9.5271,-9.527,-9.5269,0,-9.3327,-9.3431,-9.3753,-9.3812,-9.3871,-9.4015,-9.4129,-9.4246,-9.4316,-9.4311,-9.4386,-9.4322,-9.4501,-9.4323,-9.457,-9.4414,-9.4482,-9.4497,-9.451,-9.4526,-9.4328,-9.4643,-9.5166,-9.5221,-9.4539,-9.4533,-9.4528,0,-9.2853,-9.3173,-9.3135,-9.3439,-9.3584,-9.3473,-9.3631,-9.3696,-9.3702,-9.3822,-9.3826,-9.3963,-9.3825,-9.3864,-9.3989,-9.3999,-9.4201,-9.397,-9.4143,-9.415,-9.4132,-9.4612,-9.4697,-9.5054,-9.4449,-9.4457,-9.4463,0,-9.2484,-9.2573,-9.263,-9.2683,-9.2763,-9.2882,-9.3063,-9.3189,-9.3273,-9.3354,-9.3504,-9.3694,-9.3598,-9.3664,-9.3622,-9.3753,-9.4062,-9.3632,-9.3633,-9.3713,-9.4406,-9.4487,-9.4547,-9.4005,-9.4014,-9.4022,-9.4401,0,-9.1985,-9.2142,-9.2295,-9.2412,-9.25,-9.2688,-9.2665,-9.276,-9.2712,-9.2713,-9.2932,-9.2976,-9.3101,-9.316,-9.3114,-9.3422,-9.3367,-9.3262,-9.3088,-9.3402,-9.3526,-9.3577,-9.2904,-9.2899,-9.2895,-9.2891,0,0,-9.1535,-9.1759,-9.1709,-9.1885,-9.1956,-9.1837,-9.204,-9.2094,-9.2207,-9.2258,-9.216,-9.2435,-9.2475,-9.2742,-9.2838,-9.2887,-9.294,-9.2831,-9.3252,-9.3292,-9.3329,-9.3463,-9.3516,-9.2883,-9.2881,-9.288,-9.2878,0,-9.1348,-9.1396,-9.1598,-9.1653,-9.1733,-9.1724,-9.1772,-9.1829,-9.1838,-9.2051,-9.1948,-9.2075,-9.2294,-9.2351,-9.2408,-9.2798,-9.2712,-9.2837,-9.3057,-9.3208,-9.3254,-9.3295,-9.3436,-9.3487,-9.2867,-9.2868,-9.2868,0,-9.0982,-9.1025,-9.112,-9.1276,-9.1326,-9.1476,-9.1288,-9.1453,-9.1563,-9.1419,-9.1633,-9.1653,-9.1725,-9.198,-9.2093,-9.2007,-9.2506,-9.2342,-9.2369,-9.2381,-9.2525,-9.2581,-9.2631,-9.1977,-9.1974,-9.1972,0,0,-9.0824,-9.0968,-9.1,-9.1234,-9.1273,-9.1262,-9.1338,-9.1299,-9.1368,-9.1396,-9.142,-9.1489,-9.1615,-9.17,-9.1817,-9.21,-9.2111,-9.2233,-9.2275,-9.231,-9.2341,-9.2494,-9.2549,-9.196,-9.196,-9.196,0,0,-9.0747,-9.0794,-9.0734,-9.1003,-9.1074,-9.1118,-9.1261,-9.1188,-9.1292,-9.1267,-9.1204,-9.122,-9.1457,-9.148,-9.1334,-9.1754,-9.1582,-9.1616,-9.1731,-9.1783,-9.1825,-9.1815,-9.1145,0,0,0,0,0,-9.0544,-9.0788,-9.0733,-9.0775,-9.097,-9.1149,-9.1173,-9.1129,-9.1009,-9.1124,-9.1132,-9.1034,-9.1389,-9.1257,-9.1298,-9.1462,-9.1816,-9.1841,-9.1865,-9.208,-9.2135,-9.2182,0,0,0,0,0,0,-9.056,-9.0611,-9.0727,-9.0782,-9.0825,-9.114,-9.0927,-9.0921,-9.0995,-9.0974,-9.1035,-9.1036,-9.0999,-9.1233,-9.127,-9.1428,-9.1132,-9.1826,-9.1847,-9.1867,-9.2099,-9.2144,-9.2183,0,0,0,0,0,-9.0573,-9.0614,-9.0938,-9.0778,-9.0816,-9.0815,-9.0917,-9.0911,-9.0967,-9.0981,-9.0978,-9.0927,-9.1005,-9.1033,-9.1255,-9.1412,-9.1106,-9.112,-9.184,-9.1857,-9.1872,-9.2121,0,0,0,0,0,0,-9.0582,-9.0608,-9.0944,-9.0954,-9.0683,-9.0797,-9.0813,-9.0902,-9.0967,-9.0968,-9.0868,-9.085,-9.1012,-9.1032,-9.1055,-9.1409,-9.1084,-9.1099,-9.1108,-9.1853,-9.1866,-9.1878,0,0,0,0,0,0,-9.0585,-9.0617,-9.0949,-9.0832,-9.0827,-9.078,-9.0795,-9.0975,-9.097,-9.0851,-9.0838,-9.0859,-9.0977,-9.1033,-9.105,-9.1334,-9.1068,-9.1082,-9.1091,-9.1097,-9.1864,-9.1874,0,0,0,0,0,0,-9.0598,-9.0625,-9.0829,-9.0826,-9.0821,-9.0926,-9.0938,-9.1139,-9.0873,-9.0849,-9.0847,-9.0835,-9.0981,-9.0997,-9.1048,-9.1325,-9.1331,-9.1069,-9.1078,-9.1085,-9.1089,0,0,0,0,0,0,0,-9.0608,-9.0438,-9.0888,-9.0821,-9.0816,-9.1044,-9.1046,-9.1049,-9.087,-9.086,-9.085,-9.084,-9.099,-9.1005,-9.102,-9.1318,0,0,-9.1067,-9.1074,0,0,0,0,0,0,0,0,-9.0425,-9.0435,-9.0888,-9.089,-9.0892,-9.1044,-9.1046,-9.1048,-9.0868,-9.086,-9.0852,-9.0844,-9.0994,-9.1006,-9.1018,0,0,0,0,0,0,0,0,0,0,0,0,0,0,0,-9.0888,-9.089,0,-9.1044,-9.1046,-9.1048,-9.0867,-9.086,-9.0854,-9.0847,-9.0997,-9.1007,-9.1018,0,0,0,0,0,0,0,0,0,0,0,0,0,0,0,0,0,0,0,0,0,0,0,0,0,0,0,0,0,0,0,0,0,0,0,0,0,0,0,0,0,0,0,0,0,0,0,0,0,0,0,0,0,0,0,0,0,0,0,0,0,0,0,0,0,0,0,0,0]}]]]